OBJECT AP, 57203

Orbit data source: Space-Track

You're viewing an Uncataloged Satellite

Recently launched and/or uncataloged satellites may have evolving metadata. Metadata may include but not limited to: Owner, Maufacturer, Bus, Motor, and Mission.

OBJECT AP, 57203 is a satellite in SSO that was launched on Tue, 27 Jun 2023 UTC via a SOYUZ-2-1B launch vehicle from the Vostochny Cosmodrome (VOSTO). Unknown objects in Earth's orbit typically refer to objects detected orbiting the Earth but have not yet been identified or cataloged. These objects could be anything from previously untracked satellites, spent rocket stages, debris from satellite collisions, or even natural meteoroids temporarily captured by Earth's gravity.

Loading next visibility...
Identifier
57203, 2023-091AP
Orbit
SSO
Country
Flag of TBDTBD
Related business
Flag of RUUniversity of Tyumen (RU)
Manufacturer
Sputniks
Mission
Operational Amateur Imaging
Bus & Motor
CUBESAT 3U, Unknown motor
Mass
4 kg wet, 4 kg dry
Launch date (UTC)
2023-06-27 (3 years ago)
Launch vehicle
SOYUZ-2-1B
Launch site
Vostochny Cosmodrome (VOSTO)
Object type
Unknown
Shape & HBR
Box, 0.1 m
Radar Cross Section
0.035 m², Medium (>0.1 m² and < 1m²)

Expand to show TLE details & history
Last TLE update: 19 hours ago

TLE from 19 hours ago
0 OBJECT AP
1 57203U 23091AP  26149.57404100  .00016622  00000-0  54717-3 0  9999
2 57203  97.5101 216.5434 0009367 139.0657 221.1289 15.31534214161690
Epoch: 2026-05-29T13:46Z
TLE epoch observation values (Epoch: 2026-05-29T13:46:37.142Z)
Latitude
-0.00002°
Longitude
122.78617°
Altitude
479.173 km
Speed
7.623 km/s
True Right ascension
14h 26m 10s
True Declination
0° 00' 00"
Sunlit
Object was in full shadow at epoch
Visualization orbit readout
Latitude
Unknown
Longitude
Unknown
Altitude
Unknown
Speed
Unknown
Apparent Right ascension
Unknown
Apparent Declination
Unknown
Sunlit
N/A
Visualization observer readout
Local Sidereal Time
17:53:44
Azimuth
Unknown
Elevation
Unknown
Doppler factor
Unknown
Orbital elements
Apogee altitude
474.602 km
Perigee altitude
461.776 km
Semi-major axis
6,846.326 km
Eccentricity
0.00094
Inclination
97.5101°
RAAN
216.5434°
Arg. of periapsis
139.0657°
True anomaly
221.05836°
Mean anomaly
221.1289°
Eccentric anomaly
221.09362°
Mean motion
3.83139 °/min
Orbital period
93.96 mins
BSTAR
0.00054717
Loading maneuver chart data...
Computing Atmospheric mass density...
Loading historical data...
Loading historical data...
Loading historical data...
Loading historical data...
Loading historical data...
Loading historical data...
Loading historical data...

Documentation

Showing up to 5 results
|